Regional Weather Roundup
Issued by NWS

Home | Current Version | Previous Version | Text Only | Print | Product List | Glossary On
Versions: 1 2 3 4 5 6 7 8 9 10 11 12 13 14 15 16 17 18 19 20 21 22 23 24 25 26 27 28 29 30 31 32 33 34 35 36 37 38 39 40 41 42 43 44 45 46 47 48 49 50
876
ASUS43 KMKX 280111
RWRWI

WISCONSIN REGIONAL WEATHER ROUNDUP
NATIONAL WEATHER SERVICE MILWAUKEE/SULLIVAN WI
800 PM CDT MON MAR 27 2017

NOTE: "FAIR" INDICATES FEW OR NO CLOUDS BELOW 12,000 FEET WITH NO
SIGNIFICANT WEATHER AND/OR OBSTRUCTIONS TO VISIBILITY.

WIZ001-002-006>008-014>016-023>028-280200-
NORTHWEST WISCONSIN

CITY           SKY/WX    TMP DP  RH WIND       PRES   REMARKS
SUPERIOR ARPT  CLEAR     38  32  79 CALM      30.01S
ASHLAND        PTCLDY    36  31  82 CALM      30.02R
HAYWARD        PTCLDY    47  32  56 N9        29.99R
SIREN          CLEAR     48  32  54 CALM      29.98R
CUMBERLAND     CLEAR     45  34  65 SE3       29.97R
RICE LAKE      CLEAR     46  36  68 CALM      29.98R
CHETEK         CLEAR     42  36  80 CALM      29.97R
LADYSMITH      PTCLDY    44  33  65 CALM      29.98R
EAU CLAIRE     CLOUDY    45  37  73 SE3       29.97R
MENOMONIE      MOCLDY    44  37  78 SE3       29.98R
NEW RICHMOND   CLEAR     46  36  68 SW3       29.97R
OSCEOLA        CLEAR     49  33  53 E3        29.99R
$$

WIZ003>005-009-010-017-018-280200-
NORTH CENTRAL WISCONSIN

CITY           SKY/WX    TMP DP  RH WIND       PRES   REMARKS
MANITOWISH WTR CLOUDY    38  32  78 CALM      29.97R
ARBOR VITAE    CLEAR     39  33  77 CALM      29.96S
WOODRUFF       CLEAR     39  33  77 CALM      29.96S
RHINELANDER    CLEAR     41  32  70 CALM      29.97R
EAGLE RIVER    CLEAR     34  32  93 CALM      29.97R
LAND O LAKES   PTCLDY    35  30  82 CALM      29.99R
PHILLIPS       CLEAR     41  32  71 NE3       29.96R
TOMAHAWK       CLEAR     34  31  90 CALM      29.97R
MEDFORD        CLOUDY    39  37  95 CALM      29.97R
MERRILL        MOCLDY    38  38 100 CALM      29.97S
$$

WIZ029-030-035-036-043>047-280200-
CENTRAL WISCONSIN

CITY           SKY/WX    TMP DP  RH WIND       PRES   REMARKS
WAUSAU         CLOUDY    42  38  85 CALM      29.96R
MOSINEE        CLOUDY    43  39  87 N5        29.98R
MARSHFIELD     CLOUDY    42  36  79 NE3       29.96R
STEVENS POINT  CLOUDY    40  39  96 CALM      29.98R
WAUPACA        CLOUDY    43  41  91 CALM      29.98R
WAUTOMA        CLOUDY    43  41  93 NE6       29.98R
WISC RAPIDS    CLOUDY    41  40  96 NW3       29.99R
CAMP DOUGLAS   CLOUDY    45  41  87 N3        29.97R
$$

WIZ011>013-019>022-031-037>040-048>050-280200-
NORTHEAST WISCONSIN

CITY           SKY/WX    TMP DP  RH WIND       PRES   REMARKS
ANTIGO         CLOUDY    37  37  97 CALM      29.97R
SHAWANO        CLOUDY    41  38  88 CALM      29.98R
OCONTO         CLOUDY    37  33  85 CALM      29.99R
STURGEON BAY   CLOUDY    38  36  92 CALM      29.98R
GREEN BAY      CLOUDY    40  37  89 NE3       29.99R
MANITOWOC      CLOUDY    38  34  85 CALM      29.99S
APPLETON       CLOUDY    41  39  93 VRB5      29.96R
CLINTONVILLE   CLOUDY    43  37  81 CALM      29.98R
OSHKOSH        CLOUDY    41  38  89 NE6       29.97R FOG
$$

WIZ032>034-041-042-053>061-280200-
SOUTHWEST WISCONSIN

CITY           SKY/WX    TMP DP  RH WIND       PRES   REMARKS
LA CROSSE      CLOUDY    46  40  79 N6        29.97R
SPARTA         CLOUDY    44  39  83 N7        29.98S
VIROQUA        CLOUDY    43  43  99 CALM      29.95S
BOSCOBEL       CLOUDY    49  46  90 CALM      29.96R
PRAIRIE DU CHI CLOUDY    46  44  91 CALM      29.96R
PLATTEVILLE    CLOUDY    47  46  99 N5        29.94S
$$

WIZ056-057-062-063-064-067-068-280200-
SOUTH CENTRAL WISCONSIN

CITY           SKY/WX    TMP DP  RH WIND       PRES   REMARKS
REEDSBURG      CLOUDY    44  44 100 N6        29.95S
BARABOO/DELLS  CLOUDY    45  43  93 NE6       29.95S
LONE ROCK      CLOUDY    48  45  89 CALM      29.95S FOG
MINERAL POINT  CLOUDY    46  46 100 CALM      29.94S
MADISON        CLOUDY    47  44  90 N3        29.94S
MIDDLETON      CLOUDY    47  46  96 NE3       29.95R
WATERTOWN      CLOUDY    45  45 100 NE5       29.94S
MONROE         CLOUDY    46  43  87 N9        29.93R
JANESVILLE     CLOUDY    48  45  87 N8        29.94R
$$

WIZ051-052-058>065-066-070>072-280200-
SOUTHEAST WISCONSIN

CITY           SKY/WX    TMP DP  RH WIND       PRES   REMARKS
MILWAUKEE      CLOUDY    39  36  89 NE9       29.97R WCI  33
WAUKESHA       CLOUDY    37  36  93 E9        29.97R WCI  31
MILWAUKEE/TIMM CLOUDY    39  34  81 NE5       29.98R FOG
RACINE         CLOUDY    39  35  86 NE9       29.98R WCI  33
KENOSHA        CLOUDY    41  38  89 NE7       29.95R
FOND DU LAC    CLOUDY    43  38  82 N8        29.97R HAZE
SHEBOYGAN      CLOUDY    37  34  89 NE7       29.98R WCI  32
WEST BEND      CLOUDY    37  37 100 E6        29.97R FOG     WCI  33
JUNEAU         CLOUDY    42  40  93 N3        29.96R
$$

LSZ147-162-280200-
LAKE SUPERIOR

STATION/POSITION TIME  TEMP    WIND        PRES    WAVE
                       AIR SEA DIR/SP/G            HT/PER
                 (UTC) (F)     (DEG/KT/KT) (MB)    (FT/S)
DEVILS ISLAND    0000   37      80/  3/  4 1016.9R
PORT WING        0040   35     170/  1/  1 1016.3S
SAXON HARBOR     0030   35     200/  2/  2 1016.3R
$$

LMZ867-665-643>646-280200-
LAKE MICHIGAN

STATION/POSITION TIME  TEMP    WIND        PRES    WAVE
                       AIR SEA DIR/SP/G            HT/PER
                 (UTC) (F)     (DEG/KT/KT) (MB)    (FT/S)
CHAMBERS ISLAND  0040   35      CALM  /  1 1014.9R
NORTHPORT PIER   0040   34        CALM     1015.2S
SISTER BAY       2336   37        CALM       N/A
KEWAUNEE LAKESHO 0048   36        CALM     1015.0R
SHEBOYGAN LAKESH 0000   36      10/  4/  4 1015.6R
PORT WASHINGTON  0040   38      40/  6/  9 1016.3R
MILWAUKEE LAKESH 0050   37      20/  9/ 10   N/A
KENOSHA   LAKESH 0000   38      20/  7/  9 1014.2
$$

TC  - TEMPERATURE IN CELSIUS
VSB - VISIBILITY IN STATUTE MILES
WCI - WIND CHILL INDEX
HX  - HEAT INDEX





USA.gov is the U.S. government's official web portal to all federal, state and local government web resources and services.